Wind_Speed
35 34 32 30 28 25 23 21 19 18 17 16 15 14 13 12 11 10 9 7 6 5 4 3 3 2 2 2 2 2 2 2 1 1 1 2 3 4 6 7 8 9 10
37 36 35 32 30 28 26 24 22 20 19 18 17 16 15 13 12 11 10 9 8 7 5 5 4 4 3 3 3 3 3 3 2 2 2 2 3 5 6 7 8 9 10
38 38 37 35 33 31 28 26 24 22 21 20 19 17 16 15 14 13 12 10 9 8 7 6 5 5 4 4 4 4 4 3 3 3 3 3 4 5 6 7 8 9 11
39 40 39 38 36 33 31 28 26 24 22 21 20 19 18 17 15 14 13 12 10 9 8 8 7 6 6 5 5 5 4 4 4 4 4 4 5 5 6 7 9 10 11
40 42 42 40 38 36 33 31 29 26 24 23 22 21 20 18 17 16 15 14 12 11 10 9 8 7 7 7 6 6 6 5 5 5 5 5 6 6 7 8 10 11 12
42 43 43 43 41 39 36 33 31 29 27 25 24 22 21 20 19 17 16 15 14 12 11 11 10 9 9 8 8 7 7 6 6 6 6 6 7 7 8 9 10 12 13
43 44 45 45 43 41 39 36 33 31 29 27 25 24 23 22 21 19 18 17 16 14 13 12 12 11 10 10 9 9 8 8 8 8 8 8 8 8 9 10 11 13 14
45 45 47 47 45 43 41 39 36 33 31 30 28 26 25 24 22 21 20 19 17 16 15 14 13 13 12 11 11 10 10 9 9 9 9 9 10 10 11 12 13 14 15
47 46 48 48 47 45 43 41 38 36 33 32 30 28 27 26 24 23 21 20 19 18 17 16 15 14 14 13 13 12 12 11 11 11 11 11 11 12 12 13 14 15 16
50 49 49 50 48 47 45 43 41 38 36 34 32 31 29 28 26 25 23 22 21 20 19 18 17 16 16 15 15 14 14 13 13 13 13 13 13 14 14 15 16 17 18
51 51 52 51 50 48 47 45 43 41 39 37 34 33 31 30 28 26 25 24 23 22 21 20 19 18 18 17 16 16 16 15 15 15 15 15 15 16 16 17 18 19 20
52 51 52 53 52 50 48 47 45 43 41 39 37 35 33 32 29 28 27 26 25 24 23 22 21 20 19 19 18 18 17 17 17 17 17 17 18 18 18 19 20 21 22
53 53 53 53 53 51 49 49 47 46 43 41 39 37 35 33 31 30 29 28 27 26 25 24 23 22 21 21 20 20 19 19 19 19 19 20 20 20 20 21 22 23 24
54 54 54 53 53 52 50 50 49 48 45 43 41 39 37 35 33 32 31 30 29 28 27 26 25 24 23 23 22 22 21 21 21 21 22 22 22 22 23 23 24 25 26
56 56 55 54 53 53 52 51 50 50 47 45 43 41 39 37 36 34 33 32 31 30 29 28 27 26 25 24 24 23 23 24 24 24 24 24 24 25 25 26 27 27 28
57 57 56 56 55 54 53 52 51 50 50 48 45 43 41 39 38 36 35 34 33 32 31 30 28 27 26 26 26 26 26 26 26 26 26 26 26 27 27 28 28 29 30
56 57 57 56 55 54 54 54 52 50 50 48 47 45 43 41 40 38 37 36 34 33 33 32 30 29 29 28 28 28 28 28 28 28 28 28 28 29 29 30 30 31 32
54 56 56 54 54 54 54 53 52 50 49 49 49 47 45 43 41 40 39 38 36 35 35 34 33 32 31 30 30 30 30 29 30 30 30 30 30 31 31 32 32 33 34
51 54 56 55 52 52 51 50 50 49 49 49 49 48 46 45 43 42 41 39 37 35 34 34 33 32 32 31 31 31 32 32 32 32 32 32 32 32 33 34 34 34 35
47 49 53 54 51 50 51 50 49 48 47 48 48 48 48 46 44 42 41 39 37 36 35 35 34 34 34 33 33 34 34 34 34 34 34 34 34 35 35 35 35 36 37
46 47 49 51 49 48 49 47 47 46 46 47 47 47 46 46 45 43 42 41 40 39 38 37 37 36 36 36 36 36 36 35 35 35 35 36 36 36 36 36 36 37 37
42 43 44 45 46 46 46 45 46 45 44 45 47 46 46 46 45 45 44 44 43 41 41 40 39 39 38 38 38 38 37 36 36 37 38 38 38 37 37 38 38 37 37
39 38 38 39 39 40 42 42 44 46 44 43 44 44 45 46 45 44 43 43 44 43 41 41 41 41 41 41 40 40 39 39 39 39 39 39 39 39 38 38 38 39 39
35 34 34 33 33 35 36 37 40 42 42 42 43 44 45 45 45 44 43 43 44 44 42 42 42 43 43 43 42 41 41 41 40 40 40 39 39 39 39 39 39 40 39
30 30 32 31 30 31 34 34 36 38 39 39 41 43 45 45 45 45 46 46 46 45 44 43 44 45 44 44 43 43 42 41 41 41 41 41 41 41 41 40 40 40 40
26 26 26 29 27 27 31 33 35 36 36 38 40 41 42 43 45 45 44 45 46 46 46 46 45 45 44 43 43 42 43 43 43 43 42 41 40 40 40 40 40 40 41
Wind_Direction
231 231 233 234 236 237 238 238 239 240 241 240 239 239 239 242 244 245 245 245 249 248 247 247 245 238 230 217 208 207 210 214 228 255 303 338 349 353 357 358 357 358 358
232 231 232 233 234 236 237 237 238 239 240 240 240 240 239 241 243 243 243 244 247 249 249 249 246 240 235 233 229 229 235 239 246 259 285 316 333 341 347 349 350 352 353
235 232 232 232 233 235 236 236 237 238 239 239 239 239 239 240 242 243 243 244 244 246 247 246 246 243 240 241 242 243 248 252 253 265 281 303 320 329 336 341 344 346 347
237 233 232 232 232 233 234 235 235 237 238 238 239 239 238 239 240 242 243 243 242 244 244 244 246 246 245 245 246 249 253 255 258 267 279 294 309 318 327 333 338 340 341
239 234 232 232 232 232 233 234 235 235 237 237 238 239 239 239 240 241 242 243 243 244 243 245 247 248 249 248 247 249 252 256 262 268 277 289 301 311 320 326 330 333 334
240 235 232 231 231 232 232 232 234 234 236 237 238 239 239 239 239 240 242 243 244 244 245 246 248 249 250 250 249 249 250 255 261 266 274 284 294 303 311 317 322 326 328
240 236 232 231 231 231 231 231 232 234 235 236 237 238 238 238 238 239 241 243 244 245 245 247 249 249 250 250 250 250 252 256 261 266 273 280 288 296 303 309 315 320 323
238 236 232 231 230 230 231 231 232 233 234 236 237 237 237 238 238 239 242 243 244 245 246 248 249 250 250 251 251 252 255 258 262 266 271 276 283 290 297 304 309 313 317
237 235 231 230 230 230 230 230 231 232 233 235 236 237 237 237 238 240 242 243 245 246 247 249 250 250 251 252 253 255 256 258 262 265 269 275 280 286 292 298 303 308 312
235 233 231 230 230 230 230 230 230 231 232 234 235 237 238 238 239 241 242 244 245 246 248 249 251 252 253 254 256 257 259 260 262 265 269 274 279 283 288 294 299 304 308
232 231 230 229 229 229 229 229 230 231 232 233 235 237 238 239 240 242 243 244 246 248 249 250 252 253 254 256 257 259 260 262 264 267 270 273 277 281 286 291 296 300 304
230 229 228 227 227 228 229 230 230 230 232 233 235 236 238 239 240 242 243 245 246 248 249 251 252 254 255 257 259 260 261 263 265 268 270 273 276 280 284 288 293 298 301
228 227 227 226 226 227 228 229 229 230 232 233 234 236 238 240 241 242 244 245 247 249 251 252 253 254 256 258 260 262 263 265 267 268 271 273 276 279 283 287 291 295 298
226 225 225 224 224 225 226 228 229 230 231 233 234 236 238 241 242 243 244 246 247 248 251 253 254 255 257 258 260 262 264 266 268 269 271 274 276 279 282 285 289 293 296
223 223 223 223 224 224 225 226 228 229 231 233 234 235 238 240 242 243 245 247 247 248 250 252 254 256 258 259 261 263 265 267 268 269 271 273 276 278 281 284 288 291 294
222 220 221 222 223 224 225 225 226 227 230 232 233 235 237 240 241 242 246 248 248 249 251 252 253 256 258 259 261 263 265 267 269 270 271 273 276 278 281 285 288 291 294
222 220 220 222 222 223 224 225 225 226 229 231 233 235 237 239 241 243 245 247 248 249 250 251 253 256 258 261 262 263 265 268 269 271 272 274 276 279 282 285 288 291 293
220 220 220 221 223 222 225 227 226 227 229 230 232 234 237 238 240 243 245 247 249 249 251 252 253 255 259 262 263 265 266 268 270 271 273 275 276 279 282 285 287 290 292
219 220 220 221 221 220 222 224 226 226 229 230 232 233 235 237 240 242 244 246 248 250 251 253 254 256 259 261 263 265 267 269 270 272 273 275 277 279 282 284 287 289 291
217 219 220 222 222 221 223 225 225 226 228 229 231 232 234 236 238 240 242 245 247 249 251 253 254 255 258 261 263 265 267 269 271 273 274 275 277 279 282 284 286 289 292
218 219 219 220 222 222 222 223 223 226 228 229 230 231 233 235 237 240 244 246 248 250 252 254 255 256 259 261 263 265 268 269 271 273 275 276 278 280 282 284 287 289 292
215 216 218 220 221 222 222 223 224 226 229 231 232 232 234 237 239 241 244 246 248 250 253 254 255 258 260 261 263 266 268 269 271 273 275 276 278 280 282 284 286 288 291
214 213 216 216 222 224 225 225 225 225 227 229 230 233 236 238 240 241 244 248 249 251 253 255 256 258 259 260 263 266 267 268 270 272 274 276 277 280 281 283 285 288 291
212 212 214 215 220 222 222 225 226 226 228 233 234 236 237 239 241 242 245 248 250 252 253 255 258 258 260 262 264 265 267 270 271 272 274 275 277 279 280 283 286 289 291
210 210 213 214 218 222 222 224 228 231 233 235 236 238 239 241 243 245 247 248 250 251 253 255 257 259 261 263 264 265 268 270 271 272 273 275 276 278 280 283 285 288 290
211 213 215 218 223 225 225 227 230 232 234 236 239 240 242 245 246 247 248 250 251 252 253 256 259 260 262 263 265 266 267 270 271 272 274 274 276 277 279 282 284 287 289
Height
5847 5850 5852 5855 5857 5859 5861 5863 5865 5866 5867 5869 5869 5870 5871 5871 5872 5873 5873 5874 5874 5874 5874 5874 5874 5874 5874 5875 5875 5875 5875 5876 5876 5876 5876 5876 5876 5876 5876 5876 5875 5874 5873
5842 5845 5848 5851 5853 5856 5858 5860 5862 5863 5865 5866 5867 5868 5869 5870 5871 5871 5872 5873 5873 5873 5873 5874 5874 5874 5874 5874 5874 5875 5875 5875 5876 5876 5876 5876 5876 5876 5875 5875 5874 5874 5873
5836 5840 5843 5846 5849 5852 5854 5856 5859 5860 5862 5864 5865 5866 5867 5868 5869 5870 5871 5871 5872 5872 5872 5873 5873 5873 5873 5873 5874 5874 5874 5875 5875 5875 5875 5875 5875 5875 5875 5874 5874 5873 5872
5829 5834 5837 5841 5844 5847 5850 5853 5855 5857 5859 5861 5862 5863 5865 5866 5867 5868 5869 5870 5870 5871 5871 5872 5872 5872 5872 5872 5873 5873 5873 5874 5874 5874 5874 5874 5874 5874 5874 5873 5873 5872 5871
5822 5828 5831 5835 5839 5842 5845 5848 5851 5853 5855 5857 5859 5861 5862 5863 5864 5866 5867 5868 5869 5869 5870 5870 5871 5871 5871 5871 5872 5872 5872 5873 5873 5873 5873 5873 5873 5873 5873 5872 5871 5871 5870
5815 5821 5825 5829 5833 5837 5840 5844 5847 5849 5852 5854 5856 5857 5859 5860 5862 5863 5864 5866 5867 5867 5868 5869 5869 5869 5870 5870 5870 5870 5871 5871 5872 5872 5872 5872 5872 5872 5871 5871 5870 5869 5868
5807 5813 5818 5822 5827 5831 5835 5839 5842 5845 5848 5850 5852 5854 5855 5857 5859 5860 5862 5863 5864 5865 5866 5867 5867 5868 5868 5868 5869 5869 5869 5870 5870 5870 5870 5870 5870 5870 5870 5869 5868 5868 5867
5800 5805 5810 5815 5820 5825 5829 5833 5837 5840 5843 5846 5848 5850 5852 5853 5855 5857 5859 5860 5862 5862 5863 5864 5865 5866 5866 5866 5867 5867 5867 5868 5868 5868 5868 5868 5868 5868 5868 5867 5866 5865 5864
5791 5797 5802 5808 5813 5818 5823 5827 5831 5835 5838 5841 5843 5846 5848 5850 5852 5854 5855 5857 5859 5860 5861 5862 5862 5863 5864 5864 5865 5865 5865 5866 5866 5866 5866 5866 5866 5866 5865 5865 5864 5863 5862
5782 5788 5794 5800 5806 5812 5816 5821 5825 5829 5832 5835 5838 5841 5843 5846 5848 5850 5852 5854 5855 5857 5858 5859 5860 5860 5861 5862 5862 5862 5863 5863 5863 5864 5864 5863 5863 5863 5863 5862 5861 5860 5859
5773 5779 5786 5792 5798 5804 5809 5814 5819 5823 5827 5830 5833 5836 5839 5841 5844 5846 5848 5850 5851 5853 5854 5855 5856 5857 5858 5859 5859 5860 5860 5860 5861 5861 5861 5861 5860 5860 5859 5859 5858 5857 5856
5764 5771 5777 5783 5790 5796 5802 5807 5812 5816 5821 5825 5828 5831 5834 5837 5840 5842 5844 5846 5847 5849 5850 5852 5853 5854 5855 5855 5856 5856 5857 5857 5857 5857 5857 5857 5857 5857 5856 5855 5855 5854 5852
5755 5762 5767 5774 5781 5788 5794 5800 5805 5810 5814 5819 5822 5826 5829 5832 5835 5837 5839 5841 5843 5845 5846 5848 5849 5850 5851 5851 5852 5852 5853 5853 5854 5854 5854 5853 5853 5853 5852 5851 5851 5850 5848
5745 5752 5759 5766 5772 5780 5786 5791 5797 5802 5807 5812 5816 5820 5823 5827 5829 5832 5834 5836 5839 5840 5842 5843 5844 5845 5846 5847 5848 5848 5849 5849 5849 5849 5849 5849 5849 5849 5848 5847 5846 5845 5844
5736 5743 5750 5758 5764 5771 5777 5783 5789 5795 5800 5805 5809 5813 5817 5821 5824 5827 5829 5831 5833 5835 5837 5838 5840 5841 5842 5843 5843 5844 5844 5845 5845 5845 5845 5845 5844 5844 5843 5842 5841 5840 5839
5726 5734 5741 5749 5756 5762 5768 5774 5780 5786 5792 5797 5802 5807 5811 5814 5818 5820 5823 5826 5828 5830 5831 5833 5835 5836 5837 5838 5838 5839 5839 5839 5840 5840 5840 5840 5839 5839 5838 5837 5836 5835 5833
5716 5724 5732 5740 5747 5754 5760 5765 5771 5778 5784 5790 5795 5800 5804 5808 5811 5814 5817 5819 5822 5824 5825 5827 5829 5830 5831 5832 5833 5833 5833 5834 5834 5834 5834 5834 5834 5833 5832 5831 5830 5829 5827
5707 5716 5724 5732 5740 5747 5753 5758 5765 5770 5776 5782 5787 5792 5796 5801 5804 5807 5810 5813 5815 5817 5819 5821 5823 5824 5825 5826 5827 5827 5828 5828 5828 5828 5828 5828 5828 5827 5826 5825 5824 5822 5821
5699 5708 5717 5725 5732 5739 5745 5752 5757 5763 5768 5774 5779 5784 5789 5793 5797 5800 5804 5806 5809 5811 5813 5815 5816 5818 5819 5820 5820 5821 5821 5821 5821 5822 5821 5821 5821 5820 5819 5818 5817 5815 5814
5692 5701 5710 5718 5725 5732 5738 5744 5749 5755 5761 5766 5771 5776 5780 5785 5789 5792 5796 5799 5801 5804 5806 5808 5809 5811 5812 5813 5813 5814 5814 5814 5815 5815 5814 5814 5813 5813 5812 5811 5810 5808 5807
5686 5694 5703 5711 5718 5725 5732 5737 5742 5748 5754 5759 5763 5768 5772 5777 5781 5785 5788 5791 5794 5796 5798 5800 5802 5803 5804 5805 5806 5806 5807 5807 5807 5807 5807 5807 5806 5805 5804 5803 5802 5801 5799
5680 5688 5697 5704 5712 5718 5724 5731 5736 5742 5747 5751 5756 5760 5765 5769 5773 5777 5780 5783 5786 5788 5790 5792 5793 5795 5796 5797 5797 5798 5798 5800 5800 5799 5799 5799 5798 5797 5796 5795 5794 5792 5791
5675 5683 5691 5698 5706 5712 5718 5724 5729 5734 5739 5743 5748 5752 5757 5761 5764 5768 5771 5774 5777 5779 5781 5783 5784 5785 5787 5788 5788 5789 5790 5791 5792 5792 5791 5790 5789 5789 5788 5786 5785 5784 5782
5672 5680 5687 5694 5700 5706 5712 5717 5723 5728 5733 5737 5741 5745 5749 5753 5757 5760 5763 5766 5768 5770 5772 5773 5775 5776 5778 5779 5779 5780 5781 5781 5782 5783 5783 5781 5780 5780 5779 5778 5776 5775 5773
5669 5677 5683 5689 5695 5700 5706 5711 5716 5721 5726 5730 5733 5737 5741 5745 5748 5751 5753 5756 5759 5761 5763 5764 5766 5767 5768 5769 5770 5770 5771 5772 5772 5773 5773 5773 5772 5770 5769 5768 5767 5766 5764
5666 5673 5679 5685 5690 5695 5700 5705 5710 5715 5719 5723 5726 5729 5733 5736 5739 5742 5744 5747 5749 5751 5753 5755 5756 5757 5758 5759 5760 5761 5761 5762 5762 5762 5763 5763 5762 5762 5760 5759 5758 5756 5755